Regional Weather Roundup
Issued by NWS

Home | Current Version | Previous Version | Graphics & Text | Print | Product List | Glossary On
Versions: 1 2 3 4 5 6 7 8 9 10 11 12 13 14 15 16 17 18 19 20 21 22 23 24 25 26 27 28 29 30 31 32 33 34 35 36 37 38 39 40 41 42 43 44 45 46 47 48 49 50
997
ASUS44 KMEG 170610
RWRTN
TENNESSEE HOURLY STATE WEATHER ROUNDUP
NATIONAL WEATHER SERVICE MEMPHIS TN
100 AM CDT TUE OCT 17 2017

TNZ002-004-019-021-049-052-054-088>092-170700-
WEST TENNESSEE

CITY           SKY/WX    TMP DP  RH WIND       PRES   REMARKS
MEMPHIS INTL   CLEAR     52  41  66 NE7       30.30F
NWS MEMPHIS      N/A     46 N/A N/A MISG        N/A
JACKSON        CLEAR     43  42  97 CALM      30.31F
COVINGTON      CLEAR     43  41  93 CALM      30.31F
UNION CITY     FOG       39  39 100 CALM      30.31S VSB 1/4
PARIS          CLEAR     41  39  93 CALM      30.30F
HUNTINGDON     CLEAR     43  41  93 CALM      30.30S
LEXINGTON      CLEAR     41  41 100 CALM      30.30F
SELMER         CLEAR     43  41  93 CALM      30.29F
SAVANNAH       CLEAR     41  41 100 CALM      30.29F
$$

TNZ008-025-027-028-033-062-065-066-170700-
NORTH MIDDLE TENNESSEE

CITY           SKY/WX    TMP DP  RH WIND       PRES   REMARKS
NASHVILLE      CLEAR     47  43  86 NE3       30.32S
CLARKSVILLE    CLEAR     43  41  93 CALM      30.31F
SMYRNA         CLEAR     46  42  86 CALM      30.32S
COOKEVILLE     CLEAR     37  37 100 CALM      30.30S FOG
GALLATIN       CLEAR     45  41  87 CALM      30.34S
CROSSVILLE     CLEAR     42  38  85 CALM      30.30S
$$

TNZ061-075-076-078-094-096-097-170700-
SOUTH MIDDLE TENNESSEE

CITY           SKY/WX    TMP DP  RH WIND       PRES   REMARKS
FAYETTEVILLE   CLEAR     48  43  81 N6        30.27F
TULLAHOMA        N/A     45  41  87 CALM      30.29F
WINCHESTER     CLEAR     45  39  81 NE5         N/A
COLUMBIA       CLEAR     43  43 100 CALM      30.28F
SHELBYVILLE    CLEAR     43  41  93 CALM      30.30S
$$

TNZ017-018-042-046-047-170700-
NORTHEAST TENNESSEE

CITY           SKY/WX    TMP DP  RH WIND       PRES   REMARKS
TRI CITIES     CLEAR     40  40 100 CALM      30.31S
ELIZABETHTON   CLEAR     39  39 100 CALM      30.31F
$$

TNZ012-013-036-069-073-074-170700-
CENTRAL EAST TENNESSEE

CITY           SKY/WX    TMP DP  RH WIND       PRES   REMARKS
KNOXVILLE      CLEAR     49  43  80 NE7       30.28S
OAK RIDGE      CLEAR     46  44  93 E3        30.31S
DOWNTOWN KNOXV CLEAR     46  45  93 CALM      30.31R
GATLINBURG     CLEAR     43  43 100 CALM      30.30S
MORRISTOWN     CLEAR     46  41  81 NE3       30.29F
$$

TNZ083-085-099-170700-
SOUTHEAST TENNESSEE

CITY           SKY/WX    TMP DP  RH WIND       PRES   REMARKS
CHATTANOOGA    CLEAR     52  42  69 NE7       30.28F
DAYTON         CLEAR     45  45 100 CALM      30.28S
$$

SKY/WX REPORTED AS FAIR MEANS FEW OR NO CLOUDS BELOW
12 THOUSAND FEET.





USA.gov is the U.S. government's official web portal to all federal, state and local government web resources and services.